Flag for Canada Weather past 2 weeks in Owen Sound, Ontario, Canada

Now
81 °F

Sunny.


Feels Like: 81 °F
Forecast: 64 / 87 °F
Wind: 12 mph from Southwest

Location: Wiarton

Current Time: Jul 22, 2014 at 6:13:15 PM

Latest Report: Jul 22, 2014 at 12:00 PM


Visibility: 10 mi

Pressure: 30.03 "Hg

Humidity: 48%

Dew point: 59 °F

Location of Owen SoundLocation

Historic Weather in Owen Sound — Graph

°F

Owen Sound temperature yesterday

Maximum temperature yesterday: 79 °F (at 1:00 PM)
Minimum temperature yesterday: 54 °F (at 3:00 AM)
Average temperature yesterday: 68 °F

Past Weeks' High & Low Weather Summary

 TemperatureHumidityPressure
High81 °F (Jul 22, 11:00 AM)100% (Jul 8, 11:00 AM)30.26 "Hg (Jul 8, 11:00 AM)
Low43 °F (Jul 11, 5:00 AM)36% (Jul 14, 4:00 PM)29.46 "Hg (Jul 8, 3:00 PM)
Average63 °F80%29.97 "Hg
* Reported Jul 7 12:00 Noon — Jul 22 12:00 Noon, Owen Sound, Weather by CustomWeather, © 2014

Note: Actual official high and low records may vary slightly from our data, if they occured in-between our weather recording intervals... More about our weather records

Advertising

Owen Sound weather history for previous 24 hours

 ConditionsComfort  
Time TempWeatherWind HumidityBarometerVisibility
12:00 PM
Jul 22
81 °FSunny.12 mph48%30.03 "Hg10 mi
11:00 AM81 °FSunny.8 mph51%30.05 "Hg10 mi
10:00 AM77 °FSunny.14 mph51%30.06 "Hg10 mi
9:00 AM75 °FSunny.12 mph57%30.09 "Hg10 mi
8:00 AM70 °FPassing clouds.8 mph69%30.09 "Hg12 mi
7:00 AM66 °FScattered clouds.7 mph83%30.09 "Hg12 mi
6:00 AM66 °FPassing clouds.7 mph83%30.08 "Hg12 mi
5:00 AM66 °FClear.5 mph88%30.07 "Hg15 mi
4:00 AM66 °FClear.7 mph88%30.07 "Hg15 mi
3:00 AM68 °FClear.9 mph78%30.07 "Hg15 mi
2:00 AM68 °FClear.8 mph78%30.08 "Hg15 mi
1:00 AM66 °FClear.5 mph83%30.09 "Hg15 mi
12:00 AM64 °FClear.5 mph94%30.09 "Hg15 mi
11:00 PM
Jul 21
64 °FClear.5 mph94%30.10 "Hg15 mi
10:00 PM66 °FPassing clouds.5 mph94%30.10 "Hg15 mi
9:00 PM72 °FPassing clouds.5 mph73%30.09 "Hg15 mi
8:00 PM75 °FPassing clouds.6 mph65%30.09 "Hg15 mi
7:00 PM79 °FPassing clouds.8 mph58%30.09 "Hg15 mi
6:00 PM79 °FPassing clouds.9 mph54%30.10 "Hg12 mi
Weather by CustomWeather, © 2014

See weather overviewHow to use our weather pages